Location: Newark
(9.4667°S, 159.8167°E)
Time: 13:49:17
(UTC+00:00)

Courier 1B Rocket - Pass Details

Date: 25 November 2019
Orbit: 920 x 1202 km, 28.2° (Epoch: 06 December)

Event Time Altitude Azimuth Distance (km) Brightness Sun altitude
Rises 10:59:31 0° 297° (WNW) 4,076 8.4 -46.4°
Enters shadow 11:01:05 - 297° (WNW) 3,551 8.1 -46.6°
Reaches altitude 10° 11:02:21 10° 296° (WNW) 3,124 - -46.9°
Maximum altitude 11:10:13 83° 209° (SSW) 1,203 - -48.2°
Drops below altitude 10° 11:17:57 10° 120° (ESE) 3,070 - -49.5°
Sets 11:20:43 0° 119° (ESE) 4,002 - -50.0°
